Torna al catalogo

STARLINK-34729

AttivoComunicazioniVLEO
NORAD 65364·PAYLOAD·🇺🇸 United States

Lanciato Aug 28, 2025 da Cape Canaveral Space Force Station

Loading…

Prossimi Passaggi (prossime 24 ore)

TLE

AggiornatoSource: CelesTrak SupGP

Epoca: Sep 14, 2026, 23:03 UTC

1 65364C 25190P   26257.96090278 -.00003157  00000+0 -93287-4 0  2571
2 65364  53.1593   7.6377 0001245  78.6921 266.0302 15.34390485    19

Traccia STARLINK-34729 in tempo reale con AllMySat

Download on the App Store